User: anonymous   Login
Location: Unspecified
(0.0000°N, 0.0000°E)
Time: 09:12:52
(UTC+00:00)
Language:

Nadezhda 2 - Orbit

View from above orbital plane
View from above orbital plane
View from above satellite
View from above satellite

Ground track
Ground track

The orbit data is extracted from the following two-line orbital elements,

1 20508U 90017A   18110.12117182  .00000010  00000-0 -59609-5 0  9992
2 20508  82.9523 115.1107 0045594 105.9459 320.0617 13.74259876411256
Epoch (UTC): 20 April 2018 02:54:29
Eccentricity: 0.0045594
inclination: 82.9523°
perigee height: 951 km
apogee height: 1018 km
right ascension of ascending node: 115.1107°
argument of perigee: 105.9459°
revolutions per day: 13.74259876
mean anomaly at epoch: 320.0617°
orbit number at epoch: 41125

The dashed part of the orbit path shows where the satellite is in the earth's shadow,  

DLR